GW6951 Weather Reports


Display with metric or nautical units.
time (UTC)temp
F
wind
direction
speed
MPH
gust
MPH
rain 1hr
in
rain 24hr
in
rain mn
in
humidity
%
barometer
mb
20260906023834 74 129 0.0 1.0 0.00 0.00 0.00 92 1015.1
20260906023330 74 130 0.0 0.0 0.00 0.00 0.00 92 1015.0
20260906022825 74 133 0.0 2.0 0.00 0.00 0.00 91 1014.7
20260906022320 74 119 1.0 1.0 0.00 0.00 0.00 92 1014.8
20260906021816 74 142 0.0 0.0 0.00 0.00 0.00 93 1014.8
20260906021316 74 142 1.0 1.0 0.00 0.00 0.00 92 1014.5
20260906020815 74 118 0.0 1.0 0.00 0.00 0.00 91 1014.3
20260906020315 75 112 2.0 2.0 0.00 0.00 0.00 88 1014.5
20260906015810 74 166 1.0 2.0 0.00 0.00 0.00 91 1014.5
20260906015308 74 163 0.0 1.0 0.00 0.00 0.00 92 1014.3
20260906014803 74 146 0.0 0.0 0.00 0.00 0.00 92 1014.4
20260906014258 74 148 0.0 1.0 0.00 0.00 0.00 92 1014.6
20260906013754 74 147 0.0 1.0 0.00 0.00 0.00 93 1014.5
20260906013249 74 108 0.0 2.0 0.00 0.00 0.00 92 1014.6
20260906012744 75 82 1.0 3.0 0.00 0.00 0.00 92 1014.5
20260906012239 74 155 1.0 1.0 0.00 0.00 0.00 94 1014.4
20260906011735 74 148 0.0 1.0 0.00 0.00 0.00 94 1014.7
20260906011234 74 138 1.0 2.0 0.00 0.00 0.00 93 1014.5
20260906010730 74 140 0.0 0.0 0.00 0.00 0.00 93 1014.3
20260906010226 74 140 1.0 1.0 0.00 0.00 0.00 93 1014.5
20260906005721 74 138 0.0 1.0 0.00 0.00 0.00 93 1014.4
20260906005220 74 87 1.0 2.0 0.00 0.00 0.00 93 1014.3
20260906004719 75 148 0.0 1.0 0.00 0.00 0.00 92 1014.2
20260906004214 75 149 0.0 1.0 0.00 0.00 0.00 91 1014.2
20260906003710 75 150 0.0 1.0 0.00 0.00 0.00 90 1014.4
20260906003206 76 136 1.0 1.0 0.00 0.00 0.00 89 1014.2
20260906002705 76 153 0.0 2.0 0.00 0.00 0.00 85 1014.3
20260906002200 76 156 0.0 0.0 0.00 0.00 0.00 88 1014.1
20260906001655 75 159 1.0 2.0 0.00 0.00 0.00 90 1014.0
20260906001155 75 165 1.0 1.0 0.00 0.00 0.00 90 1013.8
20260906000651 76 139 0.0 1.0 0.00 0.00 0.00 89 1013.8
20260906000146 76 138 0.0 0.0 0.00 0.00 0.00 89 1013.7
20260905235645 76 148 1.0 1.0 0.00 0.00 0.00 89 1013.5
20260905235140 76 154 2.0 2.0 0.00 0.00 0.00 88 1013.6
20260905234636 76 165 0.0 1.0 0.00 0.00 0.00 88 1013.4
20260905234132 77 161 1.0 1.0 0.00 0.00 0.00 87 1013.5
20260905233632 77 157 0.0 0.0 0.00 0.00 0.00 86 1013.3
20260905233126 78 158 1.0 1.0 0.00 0.00 0.00 84 1013.3
20260905232621 79 144 1.0 1.0 0.00 0.00 0.00 81 1013.5
20260905232117 78 155 0.0 1.0 0.00 0.00 0.00 80 1013.4
20260905231617 79 98 2.0 3.0 0.00 0.00 0.00 81 1013.5
20260905231113 79 125 0.0 1.0 0.00 0.00 0.00 80 1013.2
20260905230609 79 121 0.0 1.0 0.00 0.00 0.00 78 1013.2
20260905230107 79 98 0.0 1.0 0.00 0.00 0.00 82 1013.3
20260905225606 78 121 1.0 2.0 0.00 0.00 0.00 84 1013.3
20260905225102 79 149 0.0 1.0 0.00 0.00 0.00 86 1013.4
20260905224602 79 148 0.0 1.0 0.00 0.00 0.00 87 1013.4
20260905224101 79 149 1.0 1.0 0.00 0.00 0.00 87 1013.4
20260905223559 80 148 0.0 1.0 0.00 0.00 0.00 88 1013.2
20260905223054 80 148 0.0 1.0 0.00 0.00 0.00 85 1013.5
20260905222554 81 148 0.0 1.0 0.00 0.00 0.00 83 1013.2
20260905222049 81 135 0.0 1.0 0.00 0.00 0.00 83 1013.1
20260905221546 81 151 1.0 1.0 0.00 0.00 0.00 83 1013.3
20260905221041 82 159 0.0 1.0 0.00 0.00 0.00 82 1013.3
20260905220537 81 150 0.0 0.0 0.00 0.00 0.00 86 1013.2
20260905220033 81 139 1.0 1.0 0.00 0.00 0.00 85 1013.4
20260905215532 82 166 1.0 1.0 0.00 0.00 0.00 84 1013.4
20260905215029 81 119 1.0 1.0 0.00 0.00 0.00 86 1013.3
20260905214524 81 147 0.0 1.0 0.00 0.00 0.00 83 1013.7
20260905214019 80 154 0.0 1.0 0.00 0.00 0.00 88 1013.6
20260905213514 80 155 1.0 1.0 0.00 0.00 0.00 86 1013.8
20260905213010 80 144 1.0 2.0 0.00 0.00 0.00 84 1013.8
20260905212505 80 146 0.0 0.0 0.00 0.00 0.00 89 1014.0
20260905212004 79 147 0.0 1.0 0.00 0.00 0.00 91 1014.2
20260905211459 77 137 0.0 0.0 0.00 0.00 0.00 92 1014.1
20260905210955 76 121 0.0 1.0 0.00 0.00 0.00 94 1014.2
20260905210451 77 90 0.0 1.0 0.00 0.00 0.00 93 1014.2
20260905205950 76 135 0.0 1.0 0.00 0.00 0.00 93 1014.2
20260905205445 76 110 1.0 2.0 0.00 0.00 0.00 92 1014.2
20260905204943 76 127 0.0 1.0 0.00 0.00 0.00 91 1014.1
20260905204439 76 131 0.0 3.0 0.00 0.00 0.00 93 1014.5
20260905203938 76 100 1.0 2.0 0.00 0.00 0.00 92 1014.4
20260905203434 76 125 0.0 1.0 0.00 0.00 0.00 94 1014.4
20260905202930 75 135 0.0 0.0 0.00 0.00 0.00 93 1014.5
20260905202424 76 125 0.0 1.0 0.00 0.00 0.00 92 1014.5
20260905182358 84 347 9.0 21.0 0.00 0.00 0.00 68 1016.3
20260905181855 84 347 9.0 21.0 0.00 0.00 0.00 68 1016.3
20260905181354 84 347 9.0 21.0 0.00 0.00 0.00 68 1016.3
20260905180853 86 46 3.0 4.0 0.00 0.00 0.00 73 1014.8
20260905180349 87 124 1.0 2.0 0.00 0.00 0.00 73 1014.4
20260905175844 87 192 1.0 2.0 0.00 0.00 0.00 68 1014.7
20260905175343 88 136 0.0 0.0 0.00 0.00 0.00 70 1014.8
20260905174839 89 136 0.0 0.0 0.00 0.00 0.00 67 1014.9
20260905174335 89 137 0.0 1.0 0.00 0.00 0.00 63 1014.7
20260905173830 89 144 0.0 0.0 0.00 0.00 0.00 63 1014.8
20260905173326 91 142 1.0 1.0 0.00 0.00 0.00 63 1015.0
20260905172826 91 154 1.0 2.0 0.00 0.00 0.00 61 1014.9
20260905172324 92 110 2.0 3.0 0.00 0.00 0.00 59 1015.0
20260905171820 94 124 1.0 2.0 0.00 0.00 0.00 56 1015.0
20260905171317 95 353 3.0 6.0 0.00 0.00 0.00 54 1015.2
20260905170813 95 141 1.0 6.0 0.00 0.00 0.00 55 1015.2
20260905170308 95 173 3.0 4.0 0.00 0.00 0.00 54 1015.0
20260905165807 95 123 0.0 3.0 0.00 0.00 0.00 57 1015.0
20260905165306 94 152 1.0 1.0 0.00 0.00 0.00 58 1015.1
20260905164803 95 7 4.0 4.0 0.00 0.00 0.00 54 1015.2
20260905164258 95 95 0.0 4.0 0.00 0.00 0.00 56 1015.3
20260905163754 94 131 1.0 2.0 0.00 0.00 0.00 54 1015.5
20260905163250 93 129 1.0 1.0 0.00 0.00 0.00 58 1015.4
20260905162746 92 142 0.0 2.0 0.00 0.00 0.00 57 1015.6
20260905162245 92 147 0.0 3.0 0.00 0.00 0.00 58 1015.6
20260905161740 93 11 2.0 4.0 0.00 0.00 0.00 56 1015.5
20260905161239 95 61 2.0 4.0 0.00 0.00 0.00 56 1015.6
20260905160737 95 126 1.0 2.0 0.00 0.00 0.00 54 1015.9
20260905160237 94 132 0.0 1.0 0.00 0.00 0.00 52 1015.8
20260905155732 93 183 2.0 3.0 0.00 0.00 0.00 52 1015.9
20260905155231 93 185 2.0 3.0 0.00 0.00 0.00 52 1015.8
20260905154725 93 146 1.0 3.0 0.00 0.00 0.00 56 1016.0
20260905154221 93 135 0.0 1.0 0.00 0.00 0.00 58 1016.0
20260905153716 93 137 0.0 2.0 0.00 0.00 0.00 60 1015.9
20260905153212 92 144 0.0 1.0 0.00 0.00 0.00 62 1016.0
20260905152707 93 128 0.0 1.0 0.00 0.00 0.00 62 1015.8
20260905152201 92 132 0.0 0.0 0.00 0.00 0.00 59 1015.9
20260905151701 91 130 0.0 1.0 0.00 0.00 0.00 61 1015.8
20260905151156 91 139 1.0 1.0 0.00 0.00 0.00 63 1015.8
20260905150652 91 135 0.0 0.0 0.00 0.00 0.00 65 1015.9
20260905150150 90 137 0.0 1.0 0.00 0.00 0.00 66 1016.0
20260905145648 89 151 0.0 3.0 0.00 0.00 0.00 66 1015.9
20260905145143 88 158 0.0 2.0 0.00 0.00 0.00 70 1015.9
20260905144637 88 140 0.0 1.0 0.00 0.00 0.00 69 1016.2
20260905144136 87 121 0.0 2.0 0.00 0.00 0.00 70 1016.2
20260905143631 86 164 0.0 2.0 0.00 0.00 0.00 69 1016.0
20260905143132 85 146 0.0 1.0 0.00 0.00 0.00 71 1016.0
20260905142630 85 137 1.0 2.0 0.00 0.00 0.00 74 1016.0
20260905142130 85 131 0.0 1.0 0.00 0.00 0.00 74 1016.1
20260905141630 84 163 0.0 2.0 0.00 0.00 0.00 74 1015.9
20260905141127 84 154 1.0 1.0 0.00 0.00 0.00 74 1016.1
20260905140622 82 163 0.0 1.0 0.00 0.00 0.00 76 1016.1
20260905140121 82 146 1.0 2.0 0.00 0.00 0.00 77 1016.1
20260905135616 82 160 1.0 2.0 0.00 0.00 0.00 77 1016.2
20260905135111 81 150 0.0 2.0 0.00 0.00 0.00 78 1016.3
20260905134606 80 159 1.0 1.0 0.00 0.00 0.00 78 1016.5
20260905134105 80 129 1.0 3.0 0.00 0.00 0.00 77 1016.5
20260905133601 80 153 0.0 2.0 0.00 0.00 0.00 79 1016.4
20260905133100 80 153 1.0 2.0 0.00 0.00 0.00 79 1016.5
20260905132600 79 124 0.0 1.0 0.00 0.00 0.00 80 1016.5
20260905132055 79 133 1.0 1.0 0.00 0.00 0.00 80 1016.5
20260905131550 79 129 0.0 1.0 0.00 0.00 0.00 80 1016.5
20260905131046 78 118 1.0 1.0 0.00 0.00 0.00 80 1016.8
20260905130544 78 145 1.0 1.0 0.00 0.00 0.00 80 1016.7
20260905130040 78 111 1.0 1.0 0.00 0.00 0.00 81 1016.7
20260905125539 77 126 0.0 1.0 0.00 0.00 0.00 81 1016.8
20260905125035 77 113 0.0 0.0 0.00 0.00 0.00 82 1016.8
20260905124531 77 147 0.0 0.0 0.00 0.00 0.00 82 1016.6
20260905124027 77 142 1.0 2.0 0.00 0.00 0.00 83 1016.6
20260905123523 77 138 1.0 1.0 0.00 0.00 0.00 83 1016.5
20260905123020 77 147 0.0 2.0 0.00 0.00 0.00 83 1016.6
20260905122519 77 150 0.0 1.0 0.00 0.00 0.00 83 1016.7
20260905122014 76 137 0.0 1.0 0.00 0.00 0.00 83 1016.6
20260905121514 76 115 2.0 2.0 0.00 0.00 0.00 83 1016.6
20260905121009 76 159 0.0 4.0 0.00 0.00 0.00 83 1016.5
20260905120508 76 144 1.0 2.0 0.00 0.00 0.00 83 1016.3
20260905120004 76 118 1.0 2.0 0.00 0.00 0.00 83 1016.2
20260905115502 76 127 2.0 4.0 0.00 0.00 0.00 83 1016.1
20260905114958 76 157 0.0 3.0 0.00 0.00 0.00 84 1016.2
20260905114457 75 140 2.0 4.0 0.00 0.00 0.00 84 1016.0
20260905113956 75 159 0.0 2.0 0.00 0.00 0.00 85 1015.9
20260905113452 75 132 0.0 1.0 0.00 0.00 0.00 84 1016.0
20260905112947 75 93 1.0 2.0 0.00 0.00 0.00 85 1015.8
20260905112442 75 128 1.0 2.0 0.00 0.00 0.00 86 1015.6
20260905111938 75 156 1.0 2.0 0.00 0.00 0.00 86 1015.8
20260905111438 75 137 0.0 4.0 0.00 0.00 0.00 86 1015.4
20260905110932 75 105 1.0 3.0 0.00 0.00 0.00 86 1015.5
20260905110431 75 63 2.0 2.0 0.00 0.00 0.00 85 1015.4
20260905105931 76 144 2.0 6.0 0.00 0.00 0.00 84 1015.3
20260905105426 76 127 0.0 3.0 0.00 0.00 0.00 84 1015.2
20260905104926 76 98 0.0 2.0 0.00 0.00 0.00 84 1015.3
20260905104422 76 108 0.0 2.0 0.00 0.00 0.00 84 1015.1
20260905103921 76 116 1.0 2.0 0.00 0.00 0.00 84 1015.1
20260905103417 76 140 0.0 2.0 0.00 0.00 0.00 84 1015.0
20260905102913 76 68 1.0 2.0 0.00 0.00 0.00 84 1015.0
20260905102409 76 127 0.0 2.0 0.00 0.00 0.00 85 1014.9
20260905101909 75 154 0.0 3.0 0.00 0.00 0.00 85 1015.1
20260905101407 75 179 2.0 4.0 0.00 0.00 0.00 86 1014.9
20260905100903 75 152 2.0 2.0 0.00 0.00 0.00 86 1014.8
20260905100359 76 131 0.0 2.0 0.00 0.00 0.00 85 1015.1
20260905095857 75 117 0.0 2.0 0.00 0.00 0.00 86 1015.0
20260905095353 76 155 0.0 1.0 0.00 0.00 0.00 85 1014.9
20260905094853 76 118 0.0 0.0 0.00 0.00 0.00 85 1015.0
20260905094349 76 130 1.0 3.0 0.00 0.00 0.00 85 1015.0
20260905093847 75 140 2.0 4.0 0.00 0.00 0.00 87 1015.0
20260905093343 75 99 0.0 2.0 0.00 0.00 0.00 88 1014.8
20260905092839 75 165 0.0 0.0 0.00 0.00 0.00 87 1015.0
20260905092338 75 165 0.0 0.0 0.00 0.00 0.00 88 1014.9
20260905091834 75 166 0.0 0.0 0.00 0.00 0.00 87 1015.1
20260905091333 75 105 0.0 1.0 0.00 0.00 0.00 87 1015.0
20260905090832 75 120 1.0 1.0 0.00 0.00 0.00 87 1015.1
20260905090328 75 121 0.0 0.0 0.00 0.00 0.00 87 1015.4
20260905085828 75 155 0.0 1.0 0.00 0.00 0.00 87 1015.0
20260905085322 75 140 0.0 0.0 0.00 0.00 0.00 87 1015.2
20260905084818 75 149 0.0 2.0 0.00 0.00 0.00 87 1015.2
20260905084317 75 139 0.0 0.0 0.00 0.00 0.00 87 1015.3
20260905083812 75 120 1.0 3.0 0.00 0.00 0.00 87 1015.5
20260905083308 75 124 0.0 2.0 0.00 0.00 0.00 88 1015.4
20260905082803 75 131 0.0 1.0 0.00 0.00 0.00 87 1015.5
20260905082259 75 132 0.0 1.0 0.00 0.00 0.00 87 1015.6
20260905081759 76 154 0.0 1.0 0.00 0.00 0.00 87 1015.5
20260905081255 75 128 0.0 0.0 0.00 0.00 0.00 87 1015.6
20260905080754 75 132 0.0 0.0 0.00 0.00 0.00 87 1015.8
20260905080254 75 143 0.0 0.0 0.00 0.00 0.00 87 1015.8
20260905075753 76 121 0.0 1.0 0.00 0.00 0.00 87 1016.0
20260905075253 76 144 0.0 1.0 0.00 0.00 0.00 87 1016.0
20260905074752 75 123 0.0 2.0 0.00 0.00 0.00 88 1016.0
20260905074248 75 115 0.0 2.0 0.00 0.00 0.00 88 1016.3
20260905073743 76 84 1.0 2.0 0.00 0.00 0.00 87 1016.0
20260905073238 76 161 0.0 2.0 0.00 0.00 0.00 86 1016.0
20260905072737 76 143 0.0 1.0 0.00 0.00 0.00 85 1016.0
20260905072233 77 158 0.0 0.0 0.00 0.00 0.00 85 1016.0
20260905071730 77 144 0.0 1.0 0.00 0.00 0.00 85 1016.1
20260905071226 77 123 2.0 3.0 0.00 0.00 0.00 85 1016.0
20260905070720 76 118 0.0 1.0 0.00 0.00 0.00 86 1016.2
20260905070216 76 118 0.0 1.0 0.00 0.00 0.00 86 1016.2
20260905065715 76 76 2.0 2.0 0.00 0.00 0.00 86 1016.2
20260905065209 76 121 0.0 0.0 0.00 0.00 0.00 87 1016.1
20260905064704 76 171 0.0 1.0 0.00 0.00 0.00 86 1016.3
20260905064200 76 138 0.0 0.0 0.00 0.00 0.00 86 1016.3
20260905063658 76 114 0.0 1.0 0.00 0.00 0.00 87 1016.4
20260905063155 76 122 0.0 1.0 0.00 0.00 0.00 88 1016.5
20260905062650 76 121 0.0 1.0 0.00 0.00 0.00 88 1016.4
20260905062149 76 132 0.0 0.0 0.00 0.00 0.00 89 1016.5
20260905061644 76 132 1.0 1.0 0.00 0.00 0.00 88 1016.6
20260905061144 76 133 0.0 2.0 0.00 0.00 0.00 88 1016.7
20260905060639 76 129 0.0 0.0 0.00 0.00 0.00 88 1016.6
20260905060136 76 130 0.0 1.0 0.00 0.00 0.00 88 1016.5
20260905055634 77 129 1.0 1.0 0.00 0.00 0.00 87 1016.7
20260905055130 77 129 0.0 0.0 0.00 0.00 0.00 87 1016.8
20260905054625 77 128 0.0 1.0 0.00 0.00 0.00 87 1016.8
20260905054121 76 112 0.0 1.0 0.00 0.00 0.00 87 1016.7
20260905053620 77 108 0.0 1.0 0.00 0.00 0.00 87 1016.9
20260905053116 77 129 0.0 2.0 0.00 0.00 0.00 87 1016.9
20260905052615 76 135 0.0 1.0 0.00 0.00 0.00 87 1016.9
20260905052109 77 108 1.0 1.0 0.00 0.00 0.00 87 1016.7
20260905051605 77 146 0.0 1.0 0.00 0.00 0.00 87 1016.6
20260905051102 77 120 1.0 1.0 0.00 0.00 0.00 86 1016.5
20260905050558 77 121 0.0 0.0 0.00 0.00 0.00 85 1016.8
20260905050055 77 143 0.0 1.0 0.00 0.00 0.00 86 1016.7
20260905045554 77 142 0.0 1.0 0.00 0.00 0.00 85 1016.9
20260905045050 77 108 0.0 0.0 0.00 0.00 0.00 86 1016.8
20260905044550 77 110 0.0 1.0 0.00 0.00 0.00 86 1016.7
20260905044050 77 135 0.0 1.0 0.00 0.00 0.00 85 1016.6
20260905043549 78 137 0.0 0.0 0.00 0.00 0.00 85 1016.6
20260905043044 78 137 0.0 1.0 0.00 0.00 0.00 84 1016.6
20260905042543 78 131 0.0 1.0 0.00 0.00 0.00 84 1016.6
20260905042039 77 116 0.0 0.0 0.00 0.00 0.00 85 1016.5
20260905041534 77 116 0.0 1.0 0.00 0.00 0.00 85 1016.6
20260905041029 78 150 0.0 0.0 0.00 0.00 0.00 85 1016.7
20260905040529 78 150 0.0 0.0 0.00 0.00 0.00 85 1016.8
20260905040028 78 150 0.0 0.0 0.00 0.00 0.00 85 1016.7
20260905035523 78 150 0.0 1.0 0.00 0.00 0.00 84 1016.7
20260905035020 78 147 1.0 1.0 0.00 0.00 0.00 84 1016.6
20260905034515 78 146 0.0 0.0 0.00 0.00 0.00 84 1016.6
20260905034015 79 114 0.0 1.0 0.00 0.00 0.00 84 1016.9
20260905033509 79 164 0.0 1.0 0.00 0.00 0.00 83 1016.7
20260905033004 78 112 1.0 1.0 0.00 0.00 0.00 84 1016.7
20260905032459 78 121 0.0 1.0 0.00 0.00 0.00 85 1016.9
20260905031954 78 106 0.0 1.0 0.00 0.00 0.00 86 1016.8
20260905031450 78 119 0.0 0.0 0.00 0.00 0.00 86 1016.5
20260905030945 78 134 0.0 1.0 0.00 0.00 0.00 87 1016.5
20260905030440 78 135 1.0 1.0 0.00 0.00 0.00 87 1016.8
20260905025939 78 133 0.0 0.0 0.00 0.00 0.00 88 1016.7
20260905025435 78 134 0.0 0.0 0.00 0.00 0.00 88 1016.9
20260905024931 78 134 0.0 0.0 0.00 0.00 0.00 88 1017.1
20260905024431 78 133 0.0 0.0 0.00 0.00 0.00 88 1017.2